Abilene, TX

6:14 PM CST on January 19, 2017 (GMT -0600)
Abilene Regional

Weather History for KABI - January, 2014

Change the Weather History Date:

Saturday, January 18, 2014

  Actual Average Record
Temperature  
Mean Temperature 53 °F 45 °F  
Max Temperature 70 °F 57 °F 81 °F (1964)
Min Temperature 36 °F 33 °F -2 °F (1930)
Degree Days  
Heating Degree Days 12 20  
Month to date heating degree days 353 370  
Since 1 July heating degree days 1523 1415  
Cooling Degree Days 0 0  
Month to date cooling degree days 0 0  
Year to date cooling degree days 0 0  
Growing Degree Days 4 (Base 50)    
Moisture  
Dew Point 22 °F    
Average Humidity 33    
Maximum Humidity 45    
Minimum Humidity 20    
Precipitation  
Precipitation 0.00 in 0.03 in 1.19 in (1968)
Month to date precipitation T 0.53  
Year to date precipitation T 0.53  
Sea Level Pressure  
Sea Level Pressure 30.13 in    
Wind  
Wind Speed 8 mph (SW)    
Max Wind Speed 17 mph    
Max Gust Speed 22 mph    
Visibility 10 miles    
Events      
T = Trace of Precipitation, MM = Missing Value Source: NWS Daily Summary

Daily Weather History Graph

Daily Weather History Graph

Search for Another Location

Airport or City:

Trip Planner

Search our weather history database for the weather conditions in past years. The results will help you decide how hot, cold, wet, or windy it might be!

Date:

Astronomy

Jan. 18, 2014 Rise Set
Actual Time 7:39 AM CST 5:59 PM CST
Civil Twilight 7:13 AM CST 6:25 PM CST
Nautical Twilight 6:43 AM CST 6:55 PM CST
Astronomical Twilight 6:13 AM CST 7:24 PM CST
Moon 8:30 PM CST (1/18) 8:50 AM CST (1/18)
Length of Visible Light 11h 12m
Length of Day
10h 19m
Waning Gibbous, 94% of the Moon is Illuminated
Jan 18
Waning Gibbous
Jan 23
Last Quarter
Jan 30
New
Feb 6
First Quarter
Feb 14
Full

Hourly Weather History & Observations

Time (CST) Temp. Windchill Dew Point Humidity Pressure Visibility Wind Dir Wind Speed Gust Speed Precip Events Conditions
12:52 AM 42.1 °F 37.1 °F 17.1 °F 37% 30.15 in 10.0 mi South 8.1 mph - N/A   Clear
1:52 AM 42.1 °F 37.1 °F 18.0 °F 38% 30.13 in 10.0 mi SW 8.1 mph - N/A   Clear
2:52 AM 41.0 °F 35.2 °F 18.0 °F 40% 30.13 in 10.0 mi South 9.2 mph - N/A   Clear
3:52 AM 39.9 °F 34.5 °F 19.0 °F 43% 30.12 in 10.0 mi SSW 8.1 mph - N/A   Clear
4:52 AM 41.0 °F 34.7 °F 21.0 °F 45% 30.11 in 10.0 mi SSW 10.4 mph - N/A   Clear
5:52 AM 43.0 °F 36.4 °F 19.9 °F 40% 30.10 in 10.0 mi SSW 12.7 mph - N/A   Clear
6:52 AM 43.0 °F 36.8 °F 19.9 °F 40% 30.11 in 10.0 mi SSW 11.5 mph - N/A   Clear
7:52 AM 42.1 °F 35.7 °F 19.9 °F 41% 30.12 in 10.0 mi SSW 11.5 mph - N/A   Clear
8:52 AM 46.0 °F 40.2 °F 19.0 °F 34% 30.13 in 10.0 mi SW 12.7 mph 20.7 mph N/A   Clear
9:52 AM 51.1 °F - 21.0 °F 31% 30.14 in 10.0 mi SW 13.8 mph - N/A   Clear
10:52 AM 55.9 °F - 23.0 °F 28% 30.14 in 10.0 mi SW 15.0 mph - N/A   Clear
11:52 AM 60.1 °F - 26.1 °F 27% 30.11 in 10.0 mi SW 10.4 mph - N/A   Clear
12:52 PM 63.0 °F - 27.0 °F 26% 30.07 in 10.0 mi SSW 9.2 mph - N/A   Clear
1:52 PM 68.0 °F - 27.0 °F 21% 30.05 in 10.0 mi Variable 4.6 mph - N/A   Clear
2:52 PM 69.1 °F - 27.0 °F 21% 30.05 in 10.0 mi NNW 11.5 mph - N/A   Clear
3:52 PM 68.0 °F - 27.0 °F 21% 30.06 in 10.0 mi NNW 11.5 mph - N/A   Clear
4:52 PM 66.0 °F - 25.0 °F 21% 30.09 in 10.0 mi North 9.2 mph - N/A   Clear
5:52 PM 62.1 °F - 23.0 °F 22% 30.12 in 10.0 mi North 6.9 mph - N/A   Clear
6:52 PM 57.0 °F - 21.9 °F 26% 30.14 in 10.0 mi NNE 4.6 mph - N/A   Clear
7:52 PM 51.1 °F - 23.0 °F 33% 30.17 in 10.0 mi Calm Calm - N/A   Clear
8:52 PM 45.0 °F 42.6 °F 23.0 °F 42% 30.19 in 10.0 mi South 4.6 mph - N/A   Clear
9:52 PM 45.0 °F 43.5 °F 23.0 °F 42% 30.21 in 10.0 mi WSW 3.5 mph - N/A   Clear
10:52 PM 45.0 °F - 23.0 °F 42% 30.22 in 10.0 mi Calm Calm - N/A   Clear
11:52 PM 37.0 °F 32.4 °F 21.9 °F 54% 30.23 in 10.0 mi SSE 5.8 mph - N/A   Clear